[[{"header":{"parameterUnit":"m.s-1","parameterCategory":1,"la1":30.2991,"la2":30.254,"lo1":-89.0895,"lo2":-89.0444,"dy":0.0017,"dx":0.0017,"nx":28,"ny":28,"refTime":"2026-01-06T03:00:00:Z","depth":0,"parameterNumber":2,"parameterNumberName":"U-component_of_WINDS"},"data":[0,0,0,0,0,0,0,0,0,0,0,0,0,0,0,0,0,0,0,0,0,0,0,0,0,0,0,0,0,0,0,0,0,0,0,0,0,0,0,0,0,0,0,0,0,0,0,0,0,0,0,0,0,0,0,0,0,0,1.5928,1.5929,0,1.6016,1.6018,1.6019,1.6023,1.6022,1.6021,1.602,1.6114,1.6117,1.6121,0,0,0,0,0,0,0,0,0,0,0,0,0,1.5765,1.5768,1.5928,1.5929,1.593,1.6016,1.6018,1.6019,1.6023,1.6022,1.6021,1.602,1.6113,1.6117,1.6121,0,0,0,0,0,0,0,0,0,0,0,0,0,1.5843,1.5769,1.5927,1.5943,1.5945,1.6016,1.6018,1.6019,1.6024,1.6022,1.6021,1.6019,1.6112,1.6117,1.6122,1.6185,0,0,1.6138,1.614,0,0,0,0,0,0,0,0,1.5838,1.5849,1.5939,1.5942,1.5944,1.6007,1.5995,1.6075,1.6024,1.5994,1.602,1.6018,1.608,1.6088,1.6108,1.6189,1.6193,1.6138,1.6141,1.6143,1.6145,0,0,0,0,0,0,0,1.5833,1.5845,1.5963,1.5941,1.5944,1.5946,1.5955,1.601,1.6045,1.5996,1.5997,1.6007,1.6081,1.6103,1.611,1.6195,1.6138,1.6143,1.6146,1.6148,1.6333,1.6335,0,0,0,0,0,0,1.5824,1.584,1.596,1.5966,1.5886,1.595,1.596,1.5989,1.6044,1.6051,1.6008,1.6007,1.6095,1.6104,1.6113,1.6191,1.6143,1.6148,1.6151,1.6332,1.6334,1.6336,0,0,0,0,0,0,1.5821,1.5835,1.5956,1.5903,1.5919,1.5954,1.5986,1.5991,1.6013,1.6053,1.606,1.6024,1.6094,1.6106,1.6167,1.6195,1.6151,1.6155,1.6329,1.6332,1.6335,1.6347,0,0,0,0,0,0,1.5816,1.5834,1.5857,1.5904,1.5922,1.6008,1.5988,1.5994,1.6021,1.6021,1.6069,1.6076,1.6094,1.6159,1.6172,1.6201,1.6159,1.6327,1.6331,1.6334,1.6345,1.635,1.6355,0,0,0,0,0,1.581,1.5858,1.5858,1.5873,1.5952,1.6009,1.602,1.6038,1.6024,1.6048,1.6074,1.6075,1.6189,1.6165,1.618,1.6211,1.6325,1.633,1.6334,1.6342,1.6349,1.6355,0,0,0,0,0,0,1.5814,1.5864,1.5865,1.5929,1.5965,1.601,1.6041,1.6044,1.6086,1.6083,1.6105,1.6116,1.6176,1.62,1.6172,1.6275,1.6256,1.6263,1.6258,1.6265,1.627,1.6263,1.6164,0,0,0,0,0,1.5822,1.5864,1.5906,1.5958,1.5976,1.6006,1.6031,1.6042,1.608,1.6096,1.6126,1.6164,1.6209,1.6238,1.6281,1.6348,1.6359,1.6377,1.6382,1.6386,1.6392,1.643,1.6438,1.6349,1.6349,1.6349,0,0,1.584,1.5872,1.5898,1.596,1.5989,1.6032,1.6018,1.6065,1.6098,1.6103,1.6162,1.6186,1.623,1.6294,1.6324,1.6316,1.6419,1.6391,1.6394,1.6398,1.6435,1.6443,1.6451,1.6352,1.6351,1.6351,0,0,1.5894,1.5923,1.597,1.5999,1.6043,1.6062,1.6074,1.6118,1.6134,1.6194,1.6199,1.6239,1.6315,1.6346,1.6372,1.6439,1.6441,1.6453,1.648,1.6516,1.6523,1.653,1.6554,1.6562,1.6459,1.6459,1.6459,0,1.5911,1.5976,1.5994,1.604,1.6068,1.6074,1.6122,1.615,1.6206,1.6226,1.6215,1.6311,1.6341,1.6413,1.6429,1.645,1.6464,1.6447,1.6521,1.6527,1.6533,1.6557,1.6566,1.646,1.646,1.6459,1.6459,0,1.5994,1.604,1.6072,1.6126,1.6157,1.6204,1.623,1.626,1.6268,1.6289,1.635,1.6386,1.6437,1.6455,1.6464,1.6529,1.6522,1.6516,1.6497,1.6543,1.6565,1.6574,1.6461,1.6461,1.6461,1.646,0,0,1.6054,1.6116,1.6128,1.6152,1.6202,1.6237,1.6285,1.6334,1.636,1.6398,1.644,1.6504,1.6499,1.6528,1.6541,1.6573,1.6624,1.6563,1.6564,1.6573,1.6698,1.6703,1.6713,1.6626,1.6627,1.6629,1.6695,0,1.6114,1.6198,1.6216,1.6289,1.6332,1.6338,1.638,1.6416,1.6437,1.6476,1.65,1.6545,1.6535,1.6552,1.6584,1.6611,1.665,1.6606,1.6665,1.6667,1.6654,1.6725,1.673,1.679,1.6704,1.6705,1.6706,0,1.6195,1.6235,1.6312,1.6356,1.6375,1.6412,1.6459,1.6496,1.6537,1.655,1.6583,1.6592,1.6643,1.6621,1.6693,1.6663,1.6688,1.6705,1.6708,1.6715,1.669,1.6733,1.681,1.6819,1.672,1.6719,1.6718,0,1.623,1.6304,1.636,1.6381,1.6433,1.6459,1.6483,1.6521,1.655,1.6591,1.661,1.6657,1.6683,1.6719,1.6742,1.6724,1.6812,1.6792,1.6825,1.6824,1.6843,1.6842,1.6925,1.6859,1.6859,1.6858,1.6858,0,1.6296,1.6343,1.6377,1.6411,1.6465,1.6485,1.6538,1.6561,1.6596,1.6635,1.6645,1.6682,1.6709,1.675,1.6768,1.6825,1.6836,1.6849,1.6853,1.6848,1.6847,1.6866,1.6862,1.6861,1.686,1.686,1.6859,0,1.6345,1.6369,1.6431,1.6475,1.6488,1.6525,1.6564,1.6598,1.6619,1.667,1.6683,1.6717,1.6766,1.6791,1.6853,1.6865,1.6929,1.6931,1.6915,1.6917,1.6949,1.6946,1.7047,1.7062,1.6986,1.6986,1.6987,0,1.6385,1.6421,1.647,1.6497,1.6521,1.6564,1.6593,1.6615,1.6645,1.6694,1.6723,1.6772,1.6813,1.6892,1.6923,1.697,1.6973,1.7005,1.698,1.6975,1.6974,1.6972,1.6976,1.701,1.7011,1.7011,1.7012,0,1.6454,1.6464,1.6505,1.6551,1.6585,1.6623,1.6659,1.6681,1.6709,1.6743,1.6793,1.6824,1.6887,1.6937,1.6987,1.7012,1.7017,1.7019,1.703,1.7025,1.7015,1.7021,1.6928,1.7017,1.7016,1.7016,1.7016,1.7016,1.65,1.6533,1.6572,1.6618,1.6648,1.6682,1.6717,1.6742,1.6784,1.6836,1.6847,1.69,1.6941,1.7008,1.7035,1.7078,1.7071,1.7086,1.709,1.7093,1.7095,1.7008,1.7087,1.7087,1.7087,1.7086,1.7086,0,1.6569,1.6595,1.6637,1.6688,1.6725,1.6725,1.6766,1.6797,1.6843,1.688,1.692,1.6978,1.7026,1.7061,1.711,1.7138,1.7142,1.715,1.7149,1.7154,1.7097,1.7084,1.7146,1.7146,1.7146,1.7146,1.7146,1.7146,1.661,1.6666,1.6681,1.6752,1.6778,1.683,1.6853,1.6885,1.6915,1.6979,1.7019,1.7041,1.7077,1.7129,1.7174,1.7183,1.7201,1.7209,1.7219,1.7165,1.7158,1.7152,1.714,1.7213,1.7213,1.7272,1.7273,1.7273]},{"header":{"parameterUnit":"m.s-1","parameterCategory":1,"la1":30.2991,"la2":30.254,"lo1":-89.0895,"lo2":-89.0444,"dy":0.0017,"dx":0.0017,"nx":28,"ny":28,"refTime":"2026-01-06T03:00:00:Z","depth":0,"parameterNumber":3,"parameterNumberName":"V-component_of_WINDS"},"data":[0,0,0,0,0,0,0,0,0,0,0,0,0,0,0,0,0,0,0,0,0,0,0,0,0,0,0,0,0,0,0,0,0,0,0,0,0,0,0,0,0,0,0,0,0,0,0,0,0,0,0,0,0,0,0,0,0,0,2.6041,2.6042,0,2.6086,2.6086,2.6087,2.6082,2.6081,2.6081,2.608,2.6121,2.6123,2.6124,0,0,0,0,0,0,0,0,0,0,0,0,0,2.5948,2.595,2.6041,2.6042,2.6042,2.6086,2.6086,2.6087,2.6082,2.6081,2.6081,2.608,2.612,2.6123,2.6125,0,0,0,0,0,0,0,0,0,0,0,0,0,2.599,2.595,2.6041,2.6045,2.6046,2.6086,2.6086,2.6087,2.6082,2.6081,2.608,2.6079,2.612,2.6122,2.6125,2.6162,0,0,2.6133,2.6134,0,0,0,0,0,0,0,0,2.5988,2.5993,2.6044,2.6045,2.6046,2.6077,2.6068,2.6112,2.6083,2.6068,2.608,2.6079,2.6107,2.6111,2.6121,2.6163,2.6165,2.6133,2.6135,2.6136,2.6136,0,0,0,0,0,0,0,2.5985,2.5991,2.6059,2.6045,2.6046,2.6044,2.6048,2.6077,2.6093,2.607,2.6069,2.6075,2.6107,2.6119,2.6122,2.6166,2.6133,2.6135,2.6137,2.6138,2.6242,2.6243,0,0,0,0,0,0,2.5981,2.5989,2.6057,2.606,2.6014,2.6046,2.6052,2.6068,2.6093,2.6095,2.6076,2.6075,2.6115,2.6119,2.6123,2.617,2.6136,2.6138,2.614,2.6241,2.6242,2.6244,0,0,0,0,0,0,2.5979,2.5988,2.6055,2.6025,2.6033,2.6049,2.6068,2.607,2.6081,2.6097,2.61,2.6085,2.6114,2.612,2.6153,2.6171,2.6139,2.6142,2.6239,2.6241,2.6243,2.6261,0,0,0,0,0,0,2.5977,2.5987,2.6002,2.6025,2.6035,2.6085,2.6069,2.6071,2.6086,2.6085,2.6106,2.6109,2.6114,2.6149,2.6155,2.6174,2.6144,2.6238,2.624,2.6242,2.6259,2.6263,2.6267,0,0,0,0,0,2.5973,2.6004,2.6003,2.6011,2.6054,2.6086,2.6092,2.6098,2.6088,2.6102,2.6113,2.6108,2.6168,2.6152,2.616,2.6179,2.6237,2.624,2.6242,2.6257,2.6262,2.6267,0,0,0,0,0,0,2.598,2.6007,2.6006,2.6045,2.6064,2.6085,2.6104,2.6103,2.6124,2.6122,2.6127,2.6132,2.6166,2.6175,2.6158,2.6217,2.6201,2.6205,2.6209,2.6215,2.6219,2.6216,2.6146,0,0,0,0,0,2.5986,2.6012,2.6033,2.6065,2.6075,2.6088,2.6102,2.6106,2.6125,2.6132,2.6145,2.6163,2.6186,2.62,2.6222,2.626,2.6265,2.6277,2.6281,2.6284,2.6288,2.631,2.6316,2.6253,2.6253,2.6252,0,0,2.5999,2.6016,2.6032,2.6067,2.6082,2.6108,2.6095,2.6121,2.614,2.6136,2.6169,2.6179,2.6199,2.6235,2.6251,2.6244,2.6307,2.6287,2.629,2.6292,2.6313,2.6319,2.6325,2.6254,2.6254,2.6254,0,0,2.6035,2.6051,2.608,2.6096,2.612,2.6129,2.6136,2.6159,2.6166,2.62,2.6197,2.6219,2.6257,2.6272,2.6285,2.6329,2.6325,2.6335,2.6356,2.6378,2.6383,2.6387,2.6404,2.641,2.6339,2.6339,2.6339,0,2.6047,2.6087,2.6095,2.6124,2.6139,2.6138,2.6168,2.6182,2.6211,2.6222,2.6213,2.6263,2.6276,2.6317,2.6328,2.6337,2.6346,2.6333,2.6382,2.6386,2.6391,2.6407,2.6413,2.634,2.634,2.634,2.634,0,2.6102,2.6129,2.615,2.6181,2.6199,2.6227,2.6239,2.6255,2.6258,2.6267,2.6302,2.6317,2.6343,2.6353,2.6354,2.6394,2.6389,2.6381,2.6365,2.6398,2.6413,2.6419,2.6342,2.6341,2.6341,2.6341,0,0,2.6143,2.618,2.6187,2.6202,2.6229,2.6249,2.6278,2.6305,2.632,2.634,2.6364,2.6398,2.6391,2.6406,2.6408,2.6427,2.6463,2.6417,2.6418,2.6426,2.6509,2.6516,2.6523,2.646,2.6461,2.6462,2.6508,0,2.6183,2.6237,2.6245,2.6291,2.6317,2.6317,2.6342,2.6361,2.637,2.6393,2.6402,2.6427,2.6416,2.6425,2.6444,2.6455,2.6479,2.6451,2.6483,2.6484,2.6479,2.653,2.6537,2.6579,2.6514,2.6515,2.6515,0,2.6237,2.6262,2.6311,2.6337,2.6348,2.637,2.6397,2.6418,2.6439,2.6445,2.6462,2.6463,2.6492,2.6475,2.6515,2.6495,2.6509,2.6516,2.6518,2.6522,2.6502,2.6537,2.6593,2.66,2.6524,2.6524,2.6523,0,2.6265,2.6309,2.6345,2.6358,2.6387,2.6403,2.6416,2.6436,2.6453,2.6475,2.6486,2.651,2.6524,2.6543,2.655,2.6536,2.659,2.6573,2.6596,2.6596,2.6608,2.6607,2.6668,2.6614,2.6614,2.6614,2.6614,0,2.6309,2.634,2.6358,2.6381,2.6415,2.6424,2.6457,2.6469,2.6487,2.6511,2.6511,2.6533,2.6541,2.6565,2.657,2.6603,2.6609,2.6614,2.6616,2.6615,2.6615,2.6625,2.6622,2.6616,2.6615,2.6615,2.6615,0,2.6346,2.6359,2.6399,2.6425,2.6432,2.6456,2.6478,2.6499,2.6509,2.6539,2.6546,2.6561,2.6589,2.6598,2.663,2.6634,2.6674,2.6672,2.6667,2.6668,2.6691,2.6689,2.6761,2.6771,2.671,2.671,2.6711,0,2.6374,2.6398,2.6428,2.6445,2.6459,2.6486,2.6504,2.6513,2.6531,2.6558,2.6576,2.6604,2.6627,2.667,2.6683,2.6708,2.6708,2.6731,2.6711,2.6711,2.671,2.6709,2.6712,2.6735,2.6736,2.6736,2.6737,0,2.6424,2.643,2.6456,2.6485,2.6507,2.6529,2.6551,2.6565,2.6577,2.6597,2.6627,2.6645,2.6679,2.6707,2.6733,2.6745,2.6743,2.6743,2.675,2.675,2.6747,2.6751,2.6679,2.6741,2.6741,2.674,2.674,2.674,2.6458,2.648,2.6505,2.6535,2.6553,2.6574,2.6596,2.6609,2.6635,2.6665,2.6668,2.67,2.6721,2.6756,2.677,2.6794,2.6787,2.6797,2.6799,2.6802,2.6805,2.6743,2.6798,2.6798,2.6798,2.6798,2.6798,0,2.6509,2.6525,2.6552,2.6585,2.6608,2.6606,2.663,2.665,2.6679,2.6699,2.6723,2.6757,2.6784,2.68,2.6827,2.6843,2.6843,2.685,2.685,2.6853,2.6808,2.68,2.685,2.685,2.685,2.685,2.685,2.685,2.6538,2.6576,2.6585,2.6632,2.6648,2.6681,2.6695,2.6715,2.6731,2.6771,2.6794,2.6805,2.6824,2.6852,2.6877,2.6881,2.6891,2.6899,2.6903,2.6861,2.6856,2.6851,2.6843,2.6901,2.6901,2.6945,2.6946,2.6946]}]]